TimeEST,TemperatureF,Dew PointF,Humidity,Sea Level PressureIn,VisibilityMPH,Wind Direction,Wind SpeedMPH,Gust SpeedMPH,PrecipitationIn,Events,Conditions,WindDirDegrees,DateUTC
12:53 AM,-0.0,-5.1,79,30.47,10.0,Calm,Calm,-,N/A,,Clear,0,2013-01-25 05:53:00
1:53 AM,-2.0,-6.0,83,30.46,10.0,Calm,Calm,-,N/A,,Clear,0,2013-01-25 06:53:00
2:37 AM,-0.9,-7.1,75,30.32,10.0,Calm,Calm,-,N/A,,Mostly Cloudy,0,2013-01-25 07:37:00
2:50 AM,-2.2,-7.6,78,30.31,6.0,Calm,Calm,-,N/A,,Haze,0,2013-01-25 07:50:00
2:53 AM,-2.0,-8.0,76,30.45,6.0,Calm,Calm,-,N/A,,Haze,0,2013-01-25 07:53:00
3:53 AM,-0.0,-5.1,79,30.44,10.0,Calm,Calm,-,N/A,,Clear,0,2013-01-25 08:53:00
4:53 AM,-0.0,-5.1,79,30.41,10.0,Calm,Calm,-,N/A,,Clear,0,2013-01-25 09:53:00
5:53 AM,1.9,-2.9,80,30.40,10.0,Calm,Calm,-,N/A,,Clear,0,2013-01-25 10:53:00
6:53 AM,3.0,-2.0,80,30.37,10.0,Calm,Calm,-,N/A,,Partly Cloudy,0,2013-01-25 11:53:00
7:53 AM,1.9,-2.9,80,30.34,10.0,East,3.5,-,N/A,,Mostly Cloudy,90,2013-01-25 12:53:00
8:53 AM,3.9,-0.9,80,30.32,10.0,SE,3.5,-,N/A,,Overcast,140,2013-01-25 13:53:00
9:53 AM,6.1,1.0,80,30.30,10.0,ESE,8.1,-,N/A,,Overcast,120,2013-01-25 14:53:00
10:53 AM,7.0,1.0,77,30.28,10.0,SE,9.2,-,N/A,,Overcast,130,2013-01-25 15:53:00
11:53 AM,10.0,-2.0,58,30.22,10.0,SE,10.4,-,N/A,,Overcast,130,2013-01-25 16:53:00
12:41 PM,10.0,-0.9,61,30.04,2.5,SE,8.1,-,0.00,Snow,Light Snow,130,2013-01-25 17:41:00
12:53 PM,9.0,-0.0,67,30.17,1.5,SE,5.8,-,0.00,Snow,Light Snow,130,2013-01-25 17:53:00
1:22 PM,9.0,1.9,73,30.01,0.8,ESE,5.8,-,0.00,Snow,Light Snow,120,2013-01-25 18:22:00
1:38 PM,10.0,3.0,73,30.00,1.0,ESE,5.8,-,0.00,Snow,Light Snow,120,2013-01-25 18:38:00
1:53 PM,10.0,3.0,73,30.13,0.5,SE,5.8,-,0.00,Snow,Snow,130,2013-01-25 18:53:00
2:18 PM,10.0,3.0,73,29.98,1.0,ESE,5.8,-,0.01,Snow,Light Snow,120,2013-01-25 19:18:00
2:38 PM,10.0,3.0,73,29.97,0.8,ESE,6.9,-,0.01,Snow,Light Snow,110,2013-01-25 19:38:00
2:53 PM,10.0,3.9,76,30.10,0.5,ESE,6.9,-,0.01,Snow,Snow,110,2013-01-25 19:53:00
3:53 PM,10.0,3.9,76,30.09,0.8,SE,5.8,-,0.02,Snow,Light Snow,130,2013-01-25 20:53:00
4:17 PM,10.0,3.9,76,29.94,1.2,ESE,4.6,-,0.00,Snow,Light Snow,110,2013-01-25 21:17:00
4:39 PM,10.0,3.0,73,29.93,2.0,SE,6.9,-,0.00,Snow,Light Snow,140,2013-01-25 21:39:00
4:48 PM,10.4,3.2,73,29.93,1.5,ESE,5.8,-,0.00,Snow,Light Snow,120,2013-01-25 21:48:00
4:53 PM,10.0,3.9,76,30.06,1.5,ESE,5.8,-,0.00,Snow,Light Snow,120,2013-01-25 21:53:00
5:02 PM,10.0,3.9,76,29.93,2.0,ESE,5.8,-,0.00,Snow,Light Snow,120,2013-01-25 22:02:00
5:16 PM,10.0,3.9,76,29.92,3.0,SE,5.8,-,0.00,Snow,Light Snow,140,2013-01-25 22:16:00
5:23 PM,10.0,3.9,76,29.92,2.0,SE,5.8,-,0.00,Snow,Light Snow,140,2013-01-25 22:23:00
5:30 PM,10.0,3.9,76,29.92,1.5,SE,5.8,-,0.00,Snow,Light Snow,130,2013-01-25 22:30:00
5:43 PM,9.0,3.9,80,29.92,3.0,SE,4.6,-,0.00,Snow,Light Snow,140,2013-01-25 22:43:00
5:53 PM,9.0,3.0,77,30.05,5.0,SE,4.6,-,0.00,Snow,Light Snow,130,2013-01-25 22:53:00
6:06 PM,8.1,3.0,80,29.91,2.5,SE,3.5,-,0.00,Snow,Light Snow,130,2013-01-25 23:06:00
6:14 PM,8.1,3.0,80,29.91,5.0,Calm,Calm,-,0.00,Snow,Light Snow,0,2013-01-25 23:14:00
6:22 PM,9.0,3.0,77,29.91,9.0,SE,4.6,-,0.00,,Overcast,140,2013-01-25 23:22:00
6:53 PM,8.1,3.0,80,30.05,7.0,Calm,Calm,-,0.00,Snow,Light Snow,0,2013-01-25 23:53:00
7:53 PM,9.0,3.9,80,30.05,5.0,Calm,Calm,-,0.00,,Haze,0,2013-01-26 00:53:00
8:53 PM,9.0,3.0,77,30.04,5.0,Calm,Calm,-,0.00,Snow,Light Snow,0,2013-01-26 01:53:00
9:53 PM,7.0,1.9,80,30.05,7.0,Calm,Calm,-,0.00,,Overcast,0,2013-01-26 02:53:00
10:34 PM,6.1,-0.0,76,29.91,2.5,Calm,Calm,-,N/A,,Haze,0,2013-01-26 03:34:00
10:41 PM,6.1,-0.0,76,29.91,3.0,Calm,Calm,-,N/A,,Haze,0,2013-01-26 03:41:00
10:53 PM,6.1,1.0,80,30.05,5.0,Calm,Calm,-,N/A,,Haze,0,2013-01-26 03:53:00
11:53 PM,8.1,3.0,80,30.06,5.0,Calm,Calm,-,0.00,Snow,Light Snow,0,2013-01-26 04:53:00